Total_Precipitation_Accumulation
0.03 0.03 0.02 0.03 0.03 0.03 0.02 0.02 0.02 0.01 0.01 0.02 0.01 0.01 0.02 0.02 0.03 0.03 0.03 0.03 0.02 0.01 0.02 0.02 0.02 0.02 0.01 0.01 0.01 0.00 0.01 0.00 0.00 0.00 0.00 0.00 0.00 0.00 0.00 0.00 0.00 0.00 0.00 0.00 0.01 0.00 0.01 0.00 0.00 0.01 0.01 0.01 0.01 0.06 0.01 0.03 0.14 0.34 1.48 0.92 1.35 1.98 1.69 1.97 2.13 2.69 1.30 2.41 1.92 1.46 1.49 1.46 0.83 0.56 0.93 0.36 0.42 0.67 0.24 0.22 0.05 0.05 0.06 0.02 0.00 0.00 0.00 0.01
0.04 0.03 0.02 0.02 0.03 0.03 0.02 0.02 0.01 0.01 0.01 0.01 0.02 0.01 0.02 0.02 0.03 0.02 0.02 0.02 0.01 0.02 0.02 0.03 0.02 0.01 0.02 0.01 0.00 0.00 0.01 0.00 0.00 0.00 0.00 0.00 0.00 0.00 0.00 0.00 0.00 0.00 0.00 0.00 0.00 0.00 0.00 0.00 0.00 0.00 0.01 0.03 0.00 0.02 0.02 0.10 0.04 0.41 0.76 1.33 1.97 1.08 0.80 1.51 1.38 2.07 2.32 1.37 1.31 1.46 1.21 1.09 1.09 0.44 0.68 0.72 0.31 0.23 0.17 0.20 0.11 0.05 0.04 0.00 0.01 0.00 0.01 0.02
0.03 0.03 0.03 0.03 0.03 0.02 0.02 0.02 0.01 0.01 0.01 0.01 0.02 0.02 0.02 0.02 0.02 0.02 0.02 0.01 0.02 0.03 0.03 0.03 0.02 0.02 0.01 0.01 0.00 0.00 0.01 0.00 0.00 0.00 0.00 0.00 0.00 0.00 0.00 0.00 0.00 0.00 0.00 0.00 0.00 0.00 0.00 0.00 0.00 0.00 0.00 0.01 0.01 0.05 0.01 0.14 0.08 0.30 0.57 1.60 1.78 0.96 1.36 0.77 0.98 1.16 1.06 1.20 1.04 1.41 0.87 1.57 1.11 1.36 0.64 0.68 0.61 0.47 0.29 0.12 0.06 0.04 0.04 0.02 0.05 0.02 0.02 0.03
0.02 0.02 0.03 0.03 0.03 0.02 0.02 0.01 0.01 0.01 0.02 0.02 0.02 0.02 0.02 0.02 0.02 0.01 0.01 0.02 0.03 0.03 0.03 0.03 0.02 0.02 0.02 0.00 0.00 0.01 0.00 0.00 0.00 0.00 0.00 0.00 0.00 0.00 0.00 0.00 0.00 0.00 0.00 0.00 0.00 0.00 0.00 0.00 0.00 0.00 0.00 0.01 0.00 0.01 0.04 0.07 0.14 0.41 0.49 0.95 1.39 0.68 0.99 0.90 1.17 0.77 0.46 1.19 1.41 1.18 1.49 1.25 0.99 0.90 1.05 0.73 0.58 0.38 0.35 0.08 0.07 0.02 0.01 0.02 0.01 0.02 0.01 0.03
0.02 0.02 0.03 0.03 0.02 0.01 0.01 0.02 0.01 0.01 0.01 0.02 0.01 0.02 0.02 0.01 0.01 0.01 0.02 0.03 0.03 0.02 0.02 0.02 0.02 0.02 0.00 0.00 0.00 0.00 0.00 0.00 0.00 0.00 0.00 0.00 0.00 0.00 0.00 0.00 0.00 0.00 0.00 0.00 0.00 0.00 0.00 0.00 0.00 0.00 0.00 0.00 0.01 0.02 0.02 0.02 0.01 0.06 0.33 0.44 0.45 0.46 0.98 0.54 0.84 0.43 0.32 0.77 1.17 1.30 1.10 1.76 1.04 0.49 0.82 0.70 0.87 0.71 0.45 0.09 0.06 0.00 0.00 0.00 0.01 0.01 0.01 0.01
0.02 0.03 0.03 0.03 0.02 0.01 0.01 0.01 0.01 0.02 0.01 0.01 0.01 0.01 0.01 0.01 0.01 0.02 0.03 0.02 0.02 0.02 0.01 0.02 0.03 0.01 0.01 0.00 0.00 0.01 0.00 0.00 0.00 0.00 0.00 0.00 0.00 0.00 0.00 0.00 0.00 0.00 0.00 0.00 0.00 0.00 0.00 0.00 0.00 0.00 0.00 0.00 0.00 0.02 0.00 0.03 0.01 0.37 0.32 0.06 0.10 0.24 0.84 0.28 0.36 0.56 0.62 0.57 0.98 0.76 1.28 1.08 1.02 0.93 1.00 0.79 2.01 1.01 0.35 0.19 0.04 0.00 0.00 0.00 0.00 0.00 0.01 0.00
0.02 0.04 0.03 0.02 0.02 0.01 0.01 0.01 0.02 0.01 0.01 0.01 0.01 0.01 0.01 0.01 0.02 0.02 0.02 0.02 0.02 0.02 0.02 0.01 0.02 0.01 0.00 0.01 0.00 0.00 0.00 0.00 0.00 0.00 0.00 0.00 0.00 0.00 0.00 0.00 0.00 0.00 0.00 0.00 0.00 0.00 0.00 0.00 0.00 0.00 0.00 0.00 0.00 0.00 0.00 0.00 0.06 0.02 0.57 0.13 0.44 0.44 0.13 0.24 0.39 0.57 0.58 0.73 1.17 1.29 0.78 1.33 1.04 1.41 0.79 1.20 0.79 0.64 0.43 0.37 0.02 0.02 0.00 0.00 0.00 0.00 0.00 0.00
0.03 0.02 0.02 0.01 0.01 0.01 0.01 0.01 0.02 0.02 0.01 0.01 0.01 0.01 0.01 0.02 0.02 0.01 0.01 0.02 0.02 0.02 0.02 0.02 0.02 0.00 0.00 0.00 0.00 0.00 0.00 0.00 0.00 0.00 0.00 0.00 0.00 0.00 0.00 0.00 0.00 0.00 0.00 0.00 0.00 0.00 0.00 0.00 0.00 0.00 0.00 0.00 0.00 0.01 0.00 0.00 0.07 0.12 0.14 0.03 0.09 0.49 0.31 0.45 0.41 0.78 0.86 1.42 1.40 0.82 0.92 1.65 0.97 0.96 0.40 0.78 0.46 0.16 0.35 0.11 0.02 0.00 0.00 0.00 0.00 0.00 0.00 0.00
0.02 0.02 0.01 0.01 0.01 0.01 0.01 0.01 0.02 0.02 0.02 0.01 0.01 0.01 0.01 0.01 0.01 0.01 0.02 0.01 0.02 0.02 0.01 0.02 0.00 0.00 0.01 0.00 0.00 0.00 0.00 0.00 0.00 0.00 0.00 0.00 0.00 0.00 0.00 0.00 0.00 0.00 0.00 0.00 0.00 0.00 0.00 0.00 0.00 0.00 0.00 0.00 0.00 0.00 0.00 0.01 0.36 0.03 0.28 0.03 0.02 0.13 0.45 0.85 0.67 1.02 1.02 1.13 1.14 1.13 1.31 1.59 0.97 0.37 1.23 1.33 0.74 0.41 0.31 0.08 0.01 0.00 0.00 0.00 0.00 0.00 0.00 0.00
0.02 0.02 0.01 0.01 0.01 0.01 0.01 0.01 0.01 0.02 0.01 0.01 0.01 0.02 0.02 0.01 0.01 0.01 0.01 0.01 0.01 0.02 0.01 0.01 0.00 0.01 0.00 0.00 0.00 0.00 0.00 0.00 0.00 0.00 0.00 0.00 0.00 0.00 0.00 0.00 0.00 0.00 0.00 0.00 0.00 0.00 0.00 0.00 0.00 0.00 0.00 0.00 0.00 0.00 0.00 0.02 0.87 0.01 0.03 0.07 0.07 0.43 0.46 0.67 0.51 0.61 0.90 1.05 1.11 1.51 1.35 1.60 0.65 0.50 1.10 1.21 0.30 0.27 0.43 0.05 0.03 0.00 0.00 0.00 0.00 0.00 0.00 0.00
0.02 0.01 0.01 0.01 0.01 0.01 0.01 0.01 0.01 0.01 0.01 0.01 0.02 0.01 0.01 0.01 0.01 0.01 0.01 0.01 0.01 0.01 0.01 0.01 0.00 0.01 0.00 0.00 0.00 0.00 0.00 0.00 0.00 0.00 0.00 0.00 0.00 0.00 0.00 0.00 0.00 0.00 0.00 0.00 0.00 0.00 0.00 0.00 0.00 0.00 0.00 0.03 0.00 0.00 0.00 0.01 0.00 0.01 0.01 0.03 0.38 0.44 0.51 0.75 1.01 0.61 1.44 1.61 1.42 2.35 2.02 1.74 1.69 0.62 1.18 0.55 0.30 0.57 0.57 0.05 0.03 0.00 0.00 0.00 0.00 0.00 0.00 0.00
0.01 0.01 0.01 0.01 0.01 0.01 0.01 0.01 0.01 0.01 0.02 0.02 0.01 0.01 0.01 0.01 0.01 0.01 0.01 0.01 0.01 0.01 0.00 0.01 0.00 0.00 0.00 0.00 0.00 0.00 0.00 0.00 0.00 0.00 0.00 0.00 0.00 0.00 0.00 0.00 0.00 0.00 0.00 0.00 0.00 0.00 0.00 0.00 0.00 0.00 0.01 0.00 0.01 0.00 0.00 0.00 0.00 0.00 0.10 0.52 0.44 0.95 0.79 0.96 1.01 1.36 1.38 1.26 1.25 1.98 1.51 1.53 1.61 1.01 0.79 0.51 0.32 0.37 0.39 0.11 0.02 0.01 0.00 0.01 0.00 0.00 0.00 0.00
0.01 0.01 0.01 0.00 0.00 0.01 0.01 0.01 0.01 0.02 0.01 0.01 0.01 0.01 0.01 0.01 0.01 0.01 0.00 0.00 0.00 0.01 0.02 0.00 0.01 0.00 0.00 0.00 0.00 0.00 0.00 0.00 0.00 0.00 0.00 0.00 0.00 0.00 0.00 0.00 0.00 0.00 0.00 0.00 0.00 0.00 0.00 0.00 0.00 0.00 0.00 0.00 0.00 0.01 0.07 0.00 0.00 0.00 0.02 0.07 0.15 0.67 0.77 0.86 1.59 1.81 1.50 1.76 1.21 1.60 1.84 1.23 1.61 0.87 0.71 0.23 0.37 0.27 0.22 0.24 0.01 0.01 0.00 0.00 0.00 0.00 0.00 0.00
0.02 0.01 0.01 0.01 0.00 0.01 0.01 0.01 0.01 0.02 0.01 0.01 0.01 0.01 0.01 0.01 0.01 0.00 0.00 0.00 0.00 0.01 0.01 0.00 0.00 0.00 0.00 0.00 0.00 0.00 0.00 0.00 0.00 0.00 0.00 0.00 0.00 0.00 0.00 0.00 0.00 0.00 0.00 0.00 0.00 0.00 0.00 0.00 0.00 0.00 0.00 0.00 0.00 0.00 0.00 0.01 0.00 0.08 0.05 0.09 0.16 0.08 0.77 0.65 0.83 1.21 1.33 1.11 0.93 0.81 1.46 1.46 1.47 0.96 0.82 0.26 0.40 0.09 0.14 0.14 0.09 0.01 0.01 0.00 0.00 0.00 0.00 0.00
0.01 0.01 0.01 0.01 0.01 0.01 0.01 0.01 0.01 0.01 0.01 0.01 0.01 0.01 0.01 0.00 0.00 0.00 0.00 0.00 0.00 0.01 0.00 0.02 0.00 0.00 0.00 0.00 0.00 0.00 0.00 0.00 0.00 0.00 0.00 0.00 0.00 0.00 0.00 0.00 0.00 0.00 0.00 0.00 0.00 0.00 0.00 0.00 0.00 0.00 0.00 0.00 0.00 0.00 0.03 0.02 0.01 0.02 0.05 0.07 0.01 0.04 0.60 0.65 0.51 1.07 0.87 0.80 0.99 0.71 1.54 1.38 0.92 0.89 0.79 0.51 0.36 0.81 0.58 0.23 0.04 0.02 0.01 0.00 0.00 0.00 0.00 0.00
0.00 0.01 0.00 0.01 0.01 0.01 0.01 0.00 0.00 0.01 0.01 0.01 0.01 0.01 0.00 0.00 0.00 0.00 0.00 0.00 0.00 0.01 0.02 0.00 0.00 0.00 0.00 0.00 0.00 0.00 0.00 0.00 0.00 0.00 0.00 0.00 0.00 0.00 0.00 0.00 0.00 0.00 0.00 0.00 0.00 0.00 0.00 0.00 0.00 0.00 0.00 0.00 0.00 0.00 0.03 0.03 0.04 0.02 0.04 0.05 0.07 0.06 0.32 0.63 0.88 0.73 1.20 1.04 1.03 1.12 2.24 1.07 0.89 0.83 0.83 0.36 0.76 0.69 0.35 0.20 0.07 0.03 0.03 0.02 0.02 0.01 0.01 0.00
0.00 0.00 0.00 0.01 0.01 0.01 0.01 0.00 0.01 0.01 0.01 0.01 0.00 0.00 0.00 0.00 0.00 0.00 0.00 0.01 0.01 0.00 0.00 0.00 0.00 0.00 0.00 0.00 0.00 0.00 0.00 0.00 0.00 0.00 0.00 0.00 0.00 0.00 0.00 0.00 0.00 0.00 0.00 0.00 0.00 0.00 0.00 0.00 0.00 0.00 0.00 0.00 0.00 0.01 0.07 0.05 0.08 0.06 0.01 0.08 0.02 0.05 0.24 0.72 0.45 0.86 1.10 0.79 0.83 0.54 1.12 1.07 0.50 0.67 0.52 0.47 0.54 0.57 0.13 0.13 0.13 0.05 0.02 0.03 0.05 0.01 0.02 0.02
0.00 0.00 0.00 0.01 0.01 0.01 0.01 0.00 0.01 0.01 0.01 0.00 0.00 0.00 0.00 0.00 0.00 0.00 0.00 0.00 0.00 0.00 0.00 0.00 0.00 0.00 0.00 0.00 0.00 0.00 0.00 0.00 0.00 0.00 0.00 0.00 0.00 0.00 0.00 0.00 0.00 0.00 0.00 0.00 0.00 0.00 0.00 0.00 0.00 0.00 0.00 0.00 0.00 0.00 0.03 0.09 0.03 0.08 0.03 0.05 0.05 0.03 0.03 0.60 0.34 0.44 0.74 1.10 1.28 0.65 1.03 1.10 0.77 0.39 0.64 0.51 0.97 0.57 0.33 0.16 0.44 0.09 0.05 0.04 0.04 0.03 0.06 0.03
0.00 0.00 0.00 0.00 0.01 0.02 0.01 0.01 0.00 0.01 0.01 0.00 0.00 0.00 0.00 0.01 0.00 0.00 0.00 0.00 0.00 0.00 0.00 0.00 0.00 0.00 0.00 0.00 0.00 0.00 0.00 0.00 0.00 0.00 0.00 0.00 0.00 0.00 0.00 0.00 0.00 0.00 0.00 0.00 0.00 0.00 0.00 0.00 0.00 0.00 0.00 0.00 0.00 0.00 0.05 0.02 0.01 0.04 0.03 0.02 0.04 0.08 0.24 0.56 0.35 0.18 0.43 0.77 1.00 0.78 0.69 1.26 0.75 0.88 1.39 1.15 0.47 0.80 0.40 0.45 0.60 0.23 0.09 0.06 0.06 0.02 0.04 0.05
0.00 0.00 0.00 0.00 0.00 0.01 0.01 0.01 0.00 0.01 0.01 0.00 0.00 0.00 0.00 0.00 0.00 0.00 0.00 0.00 0.00 0.00 0.00 0.00 0.00 0.00 0.00 0.00 0.00 0.00 0.00 0.00 0.00 0.00 0.00 0.00 0.00 0.00 0.00 0.00 0.00 0.00 0.00 0.00 0.00 0.00 0.00 0.00 0.00 0.00 0.00 0.00 0.00 0.00 0.02 0.00 0.00 0.01 0.01 0.02 0.04 0.06 0.06 0.06 0.17 0.13 0.42 0.90 1.00 0.76 0.63 1.13 0.71 0.87 1.42 1.50 0.84 0.91 0.74 0.87 0.49 0.34 0.47 0.08 0.05 0.05 0.06 0.02
0.00 0.00 0.00 0.00 0.00 0.00 0.01 0.00 0.01 0.01 0.02 0.00 0.00 0.00 0.00 0.00 0.00 0.00 0.00 0.00 0.00 0.00 0.00 0.00 0.00 0.00 0.00 0.00 0.00 0.00 0.00 0.00 0.00 0.00 0.00 0.00 0.00 0.00 0.00 0.00 0.00 0.00 0.00 0.00 0.00 0.00 0.00 0.00 0.00 0.00 0.00 0.00 0.00 0.00 0.00 0.00 0.00 0.04 0.01 0.02 0.03 0.01 0.11 0.02 0.06 0.08 0.76 0.70 0.76 1.16 0.83 1.25 1.53 1.20 1.47 1.62 0.76 0.47 0.19 0.29 0.30 0.53 0.22 0.19 0.04 0.03 0.08 0.05
0.00 0.00 0.00 0.00 0.00 0.00 0.00 0.00 0.00 0.01 0.01 0.00 0.00 0.00 0.00 0.00 0.00 0.00 0.00 0.00 0.00 0.00 0.00 0.00 0.00 0.00 0.00 0.00 0.00 0.00 0.00 0.00 0.00 0.00 0.00 0.00 0.00 0.00 0.00 0.00 0.00 0.00 0.00 0.00 0.00 0.00 0.00 0.00 0.00 0.00 0.00 0.00 0.00 0.00 0.00 0.00 0.00 0.02 0.07 0.03 0.06 0.02 0.10 0.05 0.25 0.43 0.65 0.81 0.61 1.37 1.21 1.40 1.75 1.60 1.85 1.82 0.88 0.88 0.27 0.39 0.73 0.51 0.41 0.35 0.20 0.06 0.07 0.02
0.00 0.00 0.00 0.00 0.00 0.00 0.00 0.00 0.00 0.01 0.00 0.00 0.00 0.00 0.00 0.00 0.00 0.00 0.00 0.00 0.00 0.00 0.00 0.00 0.00 0.00 0.00 0.00 0.00 0.00 0.00 0.00 0.00 0.00 0.00 0.00 0.00 0.00 0.00 0.00 0.00 0.00 0.00 0.00 0.00 0.00 0.00 0.00 0.00 0.00 0.00 0.00 0.00 0.00 0.00 0.00 0.00 0.00 0.00 0.04 0.04 0.03 0.04 0.15 1.01 0.90 1.39 0.32 0.95 1.14 0.88 1.13 1.88 2.21 2.54 1.98 1.12 1.29 1.10 0.83 0.68 1.18 0.78 0.52 0.25 0.34 0.11 0.04
0.00 0.00 0.00 0.00 0.00 0.00 0.00 0.00 0.02 0.01 0.00 0.00 0.00 0.00 0.00 0.00 0.00 0.00 0.00 0.00 0.00 0.00 0.00 0.00 0.00 0.00 0.00 0.00 0.00 0.00 0.00 0.00 0.00 0.00 0.00 0.00 0.00 0.00 0.00 0.00 0.00 0.00 0.00 0.00 0.00 0.00 0.00 0.00 0.00 0.00 0.00 0.00 0.00 0.00 0.00 0.00 0.00 0.00 0.00 0.01 0.01 0.01 0.01 0.04 0.14 0.19 0.42 0.72 0.59 1.29 1.42 1.42 1.34 1.62 1.27 1.69 1.24 1.90 1.32 0.80 1.35 1.19 0.97 0.48 0.35 0.47 0.36 0.13
0.00 0.00 0.00 0.00 0.00 0.00 0.00 0.00 0.00 0.00 0.00 0.00 0.00 0.00 0.00 0.00 0.00 0.00 0.00 0.00 0.00 0.00 0.00 0.00 0.00 0.00 0.00 0.00 0.00 0.00 0.00 0.00 0.00 0.00 0.00 0.00 0.00 0.00 0.00 0.00 0.00 0.00 0.00 0.00 0.00 0.00 0.00 0.00 0.00 0.00 0.00 0.00 0.00 0.00 0.00 0.00 0.01 0.00 0.00 0.00 0.03 0.00 0.01 0.00 0.00 0.01 0.10 0.56 0.28 0.53 0.93 1.70 0.73 1.06 0.77 0.93 1.10 1.32 1.44 1.30 1.15 1.06 0.77 0.36 0.38 0.16 0.37 0.40
0.00 0.00 0.00 0.00 0.01 0.00 0.00 0.00 0.00 0.00 0.00 0.00 0.00 0.00 0.00 0.00 0.00 0.00 0.00 0.00 0.00 0.00 0.00 0.00 0.00 0.00 0.00 0.00 0.00 0.00 0.00 0.00 0.00 0.00 0.00 0.00 0.00 0.00 0.00 0.00 0.00 0.00 0.00 0.00 0.00 0.00 0.00 0.00 0.00 0.00 0.00 0.00 0.00 0.00 0.00 0.00 0.00 0.00 0.01 0.00 0.00 0.00 0.01 0.01 0.00 0.00 0.08 0.40 0.06 0.10 0.37 1.05 0.94 1.03 1.18 1.21 1.08 1.41 1.77 1.26 0.97 1.04 0.90 0.46 0.41 0.19 0.08 0.05
0.00 0.00 0.01 0.00 0.01 0.01 0.00 0.00 0.00 0.00 0.00 0.00 0.00 0.00 0.00 0.00 0.00 0.00 0.00 0.00 0.00 0.00 0.00 0.00 0.00 0.00 0.00 0.00 0.00 0.00 0.00 0.00 0.00 0.00 0.00 0.00 0.00 0.00 0.00 0.00 0.00 0.00 0.00 0.00 0.00 0.00 0.00 0.00 0.00 0.00 0.00 0.00 0.00 0.00 0.00 0.00 0.00 0.01 0.00 0.00 0.00 0.00 0.03 0.01 0.00 0.00 0.02 0.12 0.04 0.21 0.11 0.46 0.63 0.86 0.69 1.39 1.27 1.39 1.55 1.16 1.34 0.98 0.74 0.70 0.29 0.38 0.12 0.06
0.00 0.00 0.00 0.00 0.00 0.03 0.01 0.00 0.00 0.00 0.00 0.00 0.00 0.00 0.00 0.00 0.00 0.00 0.00 0.00 0.00 0.00 0.00 0.00 0.00 0.00 0.00 0.00 0.00 0.00 0.00 0.00 0.00 0.00 0.00 0.00 0.00 0.00 0.00 0.00 0.00 0.00 0.00 0.00 0.00 0.00 0.00 0.00 0.00 0.00 0.00 0.00 0.00 0.00 0.00 0.00 0.00 0.00 0.00 0.00 0.00 0.00 0.00 0.01 0.00 0.01 0.01 0.01 0.15 0.12 0.03 0.21 0.55 0.97 0.57 1.24 1.66 1.41 1.69 1.83 1.20 0.77 0.52 0.50 0.40 0.24 0.16 0.07
0.00 0.00 0.00 0.00 0.00 0.00 0.00 0.00 0.00 0.00 0.00 0.00 0.00 0.00 0.00 0.00 0.00 0.00 0.02 0.07 0.00 0.00 0.00 0.00 0.00 0.00 0.00 0.00 0.00 0.00 0.00 0.00 0.00 0.00 0.00 0.00 0.00 0.00 0.00 0.00 0.00 0.00 0.00 0.00 0.00 0.00 0.00 0.00 0.00 0.00 0.00 0.00 0.00 0.00 0.00 0.00 0.00 0.00 0.00 0.00 0.00 0.02 0.03 0.00 0.04 0.06 0.14 0.03 0.04 0.02 0.05 0.25 0.45 1.00 0.50 0.74 0.88 0.85 0.84 1.25 1.06 1.23 0.58 0.46 0.41 0.37 0.51 0.31
0.00 0.00 0.00 0.00 0.00 0.00 0.00 0.00 0.00 0.00 0.00 0.00 0.00 0.00 0.00 0.00 0.00 0.00 0.01 0.03 0.00 0.00 0.00 0.00 0.00 0.00 0.00 0.00 0.00 0.00 0.00 0.00 0.00 0.00 0.00 0.00 0.00 0.00 0.00 0.00 0.00 0.00 0.00 0.00 0.00 0.00 0.00 0.00 0.00 0.00 0.00 0.00 0.00 0.00 0.00 0.00 0.00 0.00 0.00 0.00 0.00 0.01 0.01 0.06 0.02 0.02 0.06 0.03 0.01 0.01 0.03 0.03 0.40 0.55 0.35 0.57 0.28 0.30 0.54 0.86 0.97 0.88 0.72 0.54 0.40 0.35 0.28 0.24
0.00 0.00 0.00 0.01 0.01 0.00 0.00 0.00 0.00 0.00 0.00 0.00 0.00 0.00 0.00 0.00 0.00 0.02 0.04 0.02 0.00 0.00 0.00 0.00 0.00 0.00 0.00 0.00 0.00 0.00 0.00 0.00 0.00 0.00 0.00 0.00 0.00 0.00 0.00 0.00 0.00 0.00 0.00 0.00 0.02 0.00 0.00 0.00 0.00 0.00 0.00 0.00 0.00 0.00 0.00 0.00 0.00 0.00 0.00 0.18 0.06 0.10 0.09 0.11 0.10 0.68 0.06 0.02 0.01 0.01 0.03 0.03 0.26 0.43 0.38 0.07 0.07 0.11 0.23 0.58 0.96 1.04 0.61 0.63 0.58 0.68 0.27 0.35
0.00 0.00 0.00 0.01 0.00 0.01 0.00 0.00 0.00 0.00 0.00 0.00 0.00 0.00 0.00 0.02 0.00 0.12 0.05 0.00 0.02 0.00 0.00 0.00 0.00 0.00 0.00 0.00 0.00 0.00 0.00 0.00 0.00 0.00 0.00 0.00 0.00 0.00 0.00 0.00 0.00 0.04 0.00 0.00 0.00 0.00 0.00 0.00 0.00 0.00 0.00 0.00 0.00 0.00 0.00 0.00 0.00 0.00 0.00 0.01 0.13 0.10 0.48 0.09 0.50 0.13 0.03 0.12 0.17 0.01 0.02 0.14 0.21 0.18 0.06 0.09 0.03 0.03 0.04 0.13 0.33 0.81 0.69 0.60 0.55 0.66 0.67 0.62
0.00 0.00 0.00 0.00 0.00 0.00 0.00 0.00 0.00 0.00 0.00 0.00 0.00 0.00 0.01 0.16 0.07 0.06 0.04 0.00 0.02 0.00 0.00 0.00 0.00 0.00 0.00 0.00 0.00 0.00 0.00 0.00 0.00 0.00 0.00 0.00 0.00 0.00 0.00 0.00 0.00 0.00 0.01 0.00 0.00 0.00 0.00 0.00 0.00 0.00 0.00 0.00 0.00 0.00 0.00 0.00 0.00 0.00 0.01 0.01 0.01 0.10 0.06 0.12 0.09 0.04 0.02 0.03 0.03 0.01 0.02 0.06 0.11 0.11 0.04 0.06 0.02 0.01 0.02 0.04 0.26 0.62 0.70 0.56 0.40 0.28 0.55 0.60
0.00 0.00 0.00 0.00 0.00 0.00 0.00 0.00 0.00 0.00 0.00 0.00 0.00 0.00 0.04 0.07 0.15 0.02 0.01 0.00 0.01 0.00 0.00 0.01 0.00 0.00 0.00 0.02 0.01 0.00 0.01 0.00 0.00 0.00 0.00 0.00 0.00 0.00 0.00 0.00 0.00 0.00 0.00 0.00 0.00 0.00 0.00 0.00 0.00 0.00 0.00 0.00 0.00 0.00 0.00 0.00 0.00 0.00 0.00 0.00 0.02 0.04 0.01 0.04 0.06 0.05 0.02 0.10 0.03 0.03 0.02 0.37 0.22 0.80 0.12 0.42 0.01 0.02 0.01 0.03 0.18 0.35 0.71 0.98 0.85 0.42 0.49 0.35
0.00 0.00 0.00 0.00 0.00 0.00 0.00 0.00 0.00 0.00 0.00 0.00 0.00 0.09 0.14 0.06 0.03 0.03 0.01 0.00 0.00 0.00 0.00 0.00 0.00 0.00 0.01 0.00 0.00 0.00 0.00 0.00 0.00 0.00 0.00 0.00 0.00 0.00 0.00 0.00 0.00 0.00 0.00 0.00 0.00 0.00 0.00 0.00 0.00 0.00 0.00 0.00 0.00 0.00 0.00 0.00 0.01 0.00 0.01 0.00 0.00 0.00 0.00 0.03 0.01 0.02 0.01 0.02 0.03 0.04 0.18 0.23 0.16 0.06 0.29 0.27 0.19 0.03 0.11 0.28 0.36 0.64 0.77 0.92 0.92 0.90 0.69 0.45
0.00 0.00 0.00 0.00 0.00 0.00 0.00 0.00 0.00 0.00 0.00 0.00 0.04 0.09 0.12 0.00 0.03 0.00 0.01 0.00 0.00 0.00 0.00 0.00 0.00 0.00 0.00 0.01 0.00 0.01 0.00 0.00 0.00 0.00 0.00 0.00 0.00 0.00 0.00 0.00 0.00 0.00 0.00 0.01 0.00 0.00 0.00 0.00 0.00 0.00 0.00 0.00 0.00 0.00 0.00 0.00 0.00 0.00 0.02 0.02 0.00 0.01 0.00 0.02 0.00 0.00 0.01 0.11 0.07 0.03 0.03 0.06 0.01 0.08 0.22 0.59 0.70 0.24 0.21 0.23 0.15 0.46 0.43 0.54 0.65 0.59 0.86 0.39
0.00 0.00 0.01 0.00 0.00 0.00 0.00 0.00 0.00 0.00 0.00 0.00 0.08 0.13 0.01 0.00 0.00 0.00 0.00 0.00 0.00 0.00 0.00 0.00 0.00 0.00 0.00 0.00 0.00 0.00 0.00 0.00 0.00 0.00 0.02 0.00 0.00 0.00 0.00 0.00 0.00 0.00 0.00 0.00 0.00 0.00 0.00 0.00 0.00 0.00 0.00 0.00 0.00 0.00 0.00 0.00 0.00 0.00 0.01 0.00 0.00 0.00 0.01 0.00 0.03 0.02 0.02 0.06 0.17 0.12 0.09 0.08 0.09 0.55 0.39 0.85 0.70 0.64 0.16 0.14 0.16 0.10 0.29 0.70 0.41 0.57 0.41 0.62
0.00 0.00 0.00 0.00 0.00 0.00 0.00 0.00 0.00 0.00 0.00 0.07 0.10 0.01 0.00 0.01 0.00 0.00 0.00 0.00 0.00 0.00 0.00 0.00 0.00 0.00 0.00 0.00 0.00 0.00 0.00 0.00 0.00 0.00 0.01 0.00 0.00 0.00 0.00 0.00 0.00 0.00 0.00 0.00 0.00 0.00 0.00 0.00 0.00 0.00 0.00 0.00 0.00 0.00 0.00 0.00 0.00 0.00 0.01 0.01 0.02 0.08 0.00 0.00 0.01 0.06 0.06 0.04 0.19 0.35 0.34 0.15 0.16 0.34 0.18 0.20 0.11 0.11 0.06 0.19 0.42 0.17 0.30 0.44 0.68 0.63 0.36 0.25
0.00 0.00 0.00 0.00 0.00 0.00 0.00 0.00 0.00 0.00 0.02 0.13 0.07 0.05 0.01 0.01 0.00 0.00 0.00 0.00 0.00 0.00 0.00 0.00 0.00 0.00 0.00 0.00 0.00 0.00 0.00 0.00 0.00 0.00 0.01 0.00 0.00 0.00 0.00 0.00 0.00 0.00 0.00 0.00 0.00 0.00 0.00 0.00 0.00 0.00 0.00 0.00 0.00 0.00 0.00 0.00 0.00 0.00 0.00 0.01 0.00 0.00 0.03 0.08 0.01 0.06 0.02 0.10 0.05 0.70 0.53 0.45 0.46 0.61 0.17 0.28 0.23 0.07 0.06 0.06 0.15 0.32 0.44 0.58 0.43 0.43 0.30 0.31
0.00 0.01 0.00 0.00 0.00 0.00 0.00 0.00 0.00 0.01 0.11 0.18 0.04 0.03 0.01 0.00 0.00 0.00 0.00 0.00 0.00 0.00 0.06 0.00 0.00 0.00 0.00 0.00 0.00 0.00 0.00 0.00 0.00 0.01 0.01 0.01 0.00 0.00 0.00 0.00 0.00 0.00 0.00 0.00 0.00 0.00 0.00 0.00 0.01 0.00 0.00 0.00 0.00 0.00 0.00 0.00 0.00 0.00 0.00 0.01 0.00 0.00 0.01 0.01 0.01 0.01 0.05 0.04 0.03 0.08 0.19 0.14 0.17 0.20 0.25 0.25 0.14 0.04 0.06 0.08 0.19 0.42 0.86 0.82 0.50 0.57 0.59 0.52
0.00 0.00 0.00 0.00 0.00 0.00 0.00 0.00 0.03 0.10 0.05 0.11 0.01 0.02 0.01 0.01 0.00 0.00 0.00 0.00 0.00 0.00 0.00 0.00 0.00 0.00 0.00 0.01 0.02 0.00 0.00 0.00 0.01 0.01 0.00 0.01 0.00 0.00 0.00 0.00 0.00 0.00 0.00 0.00 0.00 0.00 0.00 0.00 0.00 0.01 0.00 0.00 0.00 0.00 0.00 0.00 0.00 0.00 0.00 0.00 0.00 0.00 0.03 0.01 0.02 0.00 0.01 0.05 0.07 0.08 0.24 0.18 0.06 0.33 0.28 0.90 0.81 0.04 0.09 0.62 0.51 0.55 0.53 0.65 0.40 0.52 0.56 0.40
0.00 0.04 0.00 0.00 0.00 0.00 0.00 0.09 0.07 0.05 0.05 0.08 0.10 0.01 0.02 0.00 0.01 0.00 0.00 0.00 0.00 0.00 0.00 0.00 0.00 0.00 0.00 0.00 0.00 0.01 0.00 0.00 0.02 0.02 0.01 0.03 0.00 0.00 0.00 0.00 0.00 0.00 0.00 0.00 0.01 0.04 0.00 0.01 0.00 0.00 0.01 0.01 0.00 0.00 0.00 0.00 0.00 0.00 0.00 0.00 0.00 0.00 0.00 0.02 0.00 0.01 0.00 0.04 0.02 0.07 0.04 0.29 0.10 0.55 0.14 0.08 0.02 0.02 0.17 0.03 0.26 0.29 0.22 0.14 0.20 0.31 0.47 0.46
0.00 0.01 0.00 0.00 0.00 0.00 0.00 0.05 0.03 0.02 0.08 0.03 0.01 0.03 0.01 0.02 0.01 0.04 0.01 0.03 0.02 0.05 0.02 0.01 0.00 0.01 0.01 0.00 0.00 0.00 0.00 0.01 0.02 0.03 0.02 0.02 0.02 0.00 0.00 0.00 0.00 0.00 0.00 0.00 0.00 0.00 0.00 0.00 0.01 0.00 0.00 0.00 0.00 0.01 0.00 0.00 0.00 0.00 0.00 0.00 0.00 0.00 0.00 0.00 0.03 0.01 0.01 0.12 0.03 0.06 0.07 0.15 0.21 0.32 0.35 0.51 0.01 0.01 0.01 0.01 0.03 0.05 0.09 0.09 0.72 0.43 0.63 0.59
0.00 0.01 0.00 0.00 0.00 0.00 0.02 0.14 0.11 0.03 0.01 0.01 0.02 0.03 0.00 0.01 0.01 0.06 0.04 0.05 0.04 0.05 0.04 0.03 0.02 0.04 0.02 0.00 0.01 0.00 0.01 0.02 0.04 0.03 0.04 0.05 0.04 0.01 0.00 0.00 0.00 0.00 0.00 0.00 0.00 0.03 0.00 0.00 0.00 0.02 0.01 0.00 0.00 0.00 0.00 0.00 0.00 0.00 0.00 0.00 0.00 0.00 0.00 0.00 0.02 0.01 0.01 0.03 0.06 0.08 0.17 0.22 0.16 0.17 0.16 0.41 0.12 0.01 0.01 0.01 0.01 0.02 0.06 0.17 0.27 0.99 0.61 0.78
0.02 0.01 0.00 0.00 0.00 0.00 0.07 0.09 0.06 0.08 0.02 0.01 0.04 0.02 0.04 0.03 0.02 0.02 0.03 0.05 0.04 0.05 0.01 0.04 0.08 0.09 0.03 0.02 0.01 0.00 0.01 0.00 0.04 0.04 0.05 0.06 0.04 0.02 0.00 0.00 0.00 0.00 0.00 0.00 0.00 0.00 0.00 0.01 0.04 0.07 0.00 0.02 0.01 0.10 0.10 0.17 0.01 0.00 0.00 0.00 0.00 0.00 0.00 0.02 0.01 0.02 0.00 0.05 0.06 0.05 0.17 0.12 0.05 0.22 0.20 0.22 0.08 0.02 0.02 0.01 0.01 0.03 0.02 0.02 0.20 0.15 0.81 0.69
0.01 0.18 0.01 0.00 0.00 0.02 0.02 0.00 0.02 0.07 0.05 0.02 0.02 0.03 0.01 0.06 0.03 0.03 0.02 0.03 0.01 0.02 0.05 0.05 0.03 0.03 0.09 0.08 0.04 0.02 0.01 0.01 0.02 0.06 0.10 0.12 0.06 0.04 0.02 0.01 0.00 0.00 0.00 0.00 0.00 0.00 0.00 0.00 0.00 0.01 0.06 0.14 0.28 0.03 0.00 0.00 0.00 0.01 0.00 0.00 0.00 0.00 0.00 0.00 0.01 0.01 0.02 0.02 0.07 0.04 0.05 0.03 0.08 0.09 0.13 0.13 0.14 0.02 0.02 0.01 0.02 0.01 0.01 0.08 0.00 0.02 0.13 0.40
0.17 0.06 0.02 0.27 0.02 0.12 0.01 0.09 0.05 0.11 0.08 0.03 0.10 0.04 0.05 0.03 0.01 0.03 0.02 0.15 0.08 0.02 0.02 0.06 0.06 0.06 0.13 0.10 0.10 0.07 0.04 0.01 0.03 0.05 0.11 0.11 0.07 0.04 0.03 0.02 0.01 0.00 0.01 0.00 0.00 0.00 0.00 0.00 0.00 0.00 0.00 0.01 0.02 0.00 0.02 0.00 0.00 0.00 0.00 0.00 0.00 0.00 0.00 0.00 0.01 0.03 0.01 0.02 0.05 0.09 0.01 0.02 0.07 0.04 0.07 0.08 0.05 0.19 0.01 0.01 0.00 0.01 0.01 0.02 0.04 0.01 0.01 0.24
0.27 0.08 0.05 0.41 0.15 0.07 0.13 0.07 0.03 0.07 0.06 0.09 0.34 0.05 0.06 0.03 0.02 0.10 0.01 0.02 0.02 0.08 0.06 0.45 0.08 0.13 0.12 0.09 0.08 0.11 0.12 0.08 0.03 0.06 0.13 0.10 0.11 0.16 0.10 0.07 0.03 0.03 0.01 0.01 0.00 0.01 0.01 0.01 0.00 0.00 0.00 0.00 0.00 0.00 0.01 0.00 0.00 0.00 0.00 0.00 0.01 0.00 0.00 0.00 0.00 0.00 0.01 0.02 0.20 0.11 0.03 0.06 0.06 0.02 0.04 0.08 0.12 0.22 0.25 0.03 0.01 0.01 0.02 0.01 0.01 0.01 0.01 0.04
0.08 0.17 0.03 0.17 0.18 0.14 0.05 0.06 0.02 0.06 0.05 0.06 0.10 0.08 0.03 0.02 0.02 0.04 0.02 0.02 0.01 0.07 0.18 0.21 0.08 0.11 0.10 0.15 0.11 0.19 0.16 0.15 0.21 0.17 0.08 0.16 0.09 0.06 0.08 0.10 0.07 0.02 0.02 0.01 0.01 0.00 0.01 0.01 0.00 0.00 0.00 0.00 0.01 0.00 0.00 0.00 0.00 0.00 0.00 0.00 0.00 0.00 0.00 0.00 0.01 0.01 0.02 0.01 0.02 0.03 0.04 0.11 0.10 0.13 0.05 0.06 0.03 0.20 0.35 0.09 0.02 0.02 0.03 0.02 0.01 0.01 0.01 0.03
0.39 0.22 0.90 0.11 0.49 0.14 0.04 0.06 0.04 0.04 0.05 0.09 0.12 0.17 0.12 0.06 0.05 0.03 0.03 0.03 0.06 0.05 0.12 0.07 0.07 0.07 0.07 0.06 0.09 0.18 0.22 0.06 0.10 0.09 0.04 0.04 0.07 0.06 0.09 0.09 0.11 0.10 0.03 0.05 0.02 0.06 0.00 0.04 0.01 0.00 0.02 0.00 0.00 0.00 0.00 0.00 0.00 0.00 0.00 0.00 0.00 0.01 0.00 0.00 0.00 0.01 0.02 0.03 0.03 0.09 0.05 0.04 0.09 0.04 0.10 0.09 0.09 0.19 0.28 0.45 0.16 0.16 0.03 0.03 0.04 0.02 0.02 0.02
0.36 0.58 0.88 0.76 0.32 0.25 0.20 0.10 0.12 0.19 0.22 0.05 0.09 0.12 0.05 0.11 0.11 0.13 0.05 0.03 0.04 0.10 0.20 0.07 0.05 0.07 0.07 0.07 0.08 0.15 0.06 0.05 0.04 0.03 0.02 0.02 0.09 0.09 0.07 0.15 0.06 0.18 0.15 0.10 0.07 0.05 0.00 0.09 0.00 0.00 0.02 0.01 0.00 0.03 0.01 0.01 0.00 0.00 0.00 0.00 0.00 0.00 0.00 0.00 0.00 0.04 0.03 0.04 0.05 0.06 0.04 0.10 0.04 0.06 0.01 0.15 0.15 0.08 0.55 0.63 0.27 0.11 0.11 0.24 0.05 0.05 0.04 0.03
0.33 0.70 0.68 0.95 0.52 0.32 0.20 0.05 0.09 0.15 0.21 0.13 0.29 0.10 0.11 0.10 0.07 0.14 0.28 0.07 0.09 0.27 0.11 0.14 0.10 0.09 0.04 0.05 0.17 0.14 0.09 0.03 0.02 0.01 0.01 0.01 0.00 0.01 0.02 0.03 0.04 0.05 0.10 0.10 0.09 0.10 0.05 0.06 0.03 0.07 0.03 0.02 0.02 0.04 0.05 0.02 0.02 0.02 0.01 0.00 0.00 0.00 0.03 0.01 0.01 0.02 0.04 0.03 0.05 0.08 0.37 0.04 0.09 0.18 0.11 0.03 0.06 0.31 0.22 0.49 0.60 0.35 0.09 0.31 0.22 0.12 0.23 0.07